| time (UTC) | temp F | wind direction | speed knots | gust knots | rain 1hr in | rain 24hr in | rain mn in | humidity % | barometer mb |
| 20260504070113 | 61 | 326 | 0.0 | 0.0 | 0.00 | 0.00 | 0.00 | 85 | 1017.9 |
| 20260504050658 | 61 | 326 | 0.0 | 0.0 | 0.00 | 0.00 | 0.00 | 82 | 1018.6 |
| 20260504050155 | 62 | 326 | 0.0 | 0.0 | 0.00 | 0.00 | 0.00 | 82 | 1019.0 |
| 20260504045652 | 62 | 326 | 0.0 | 0.0 | 0.00 | 0.00 | 0.00 | 82 | 1019.0 |
| 20260504045149 | 62 | 298 | 0.0 | 0.0 | 0.00 | 0.00 | 0.00 | 81 | 1019.0 |
| 20260504044646 | 62 | 300 | 0.0 | 0.0 | 0.00 | 0.00 | 0.00 | 81 | 1019.0 |
| 20260504044009 | 62 | 300 | 0.0 | 0.0 | 0.00 | 0.00 | 0.00 | 80 | 1019.0 |
| 20260504043505 | 62 | 300 | 0.0 | 0.0 | 0.00 | 0.00 | 0.00 | 80 | 1019.0 |
| 20260504043003 | 62 | 300 | 0.0 | 0.0 | 0.00 | 0.00 | 0.00 | 80 | 1019.0 |
| 20260504042410 | 62 | 300 | 0.0 | 0.0 | 0.00 | 0.00 | 0.00 | 79 | 1019.0 |
| 20260504041907 | 62 | 300 | 0.0 | 0.0 | 0.00 | 0.00 | 0.00 | 79 | 1019.0 |
| 20260504041404 | 63 | 300 | 0.0 | 0.0 | 0.00 | 0.00 | 0.00 | 79 | 1019.0 |
| 20260504040901 | 63 | 300 | 0.0 | 0.0 | 0.00 | 0.00 | 0.00 | 79 | 1019.0 |
| 20260504040256 | 63 | 300 | 0.0 | 0.0 | 0.00 | 0.00 | 0.00 | 79 | 1019.0 |
| 20260504035753 | 63 | 300 | 0.0 | 0.0 | 0.00 | 0.00 | 0.00 | 78 | 1019.0 |
| 20260504035250 | 63 | 300 | 0.0 | 0.0 | 0.00 | 0.00 | 0.00 | 78 | 1019.0 |
| 20260504034747 | 63 | 300 | 0.0 | 0.0 | 0.00 | 0.00 | 0.00 | 78 | 1019.0 |
| 20260504034245 | 63 | 300 | 0.0 | 0.0 | 0.00 | 0.00 | 0.00 | 78 | 1019.0 |
| 20260504033741 | 64 | 300 | 0.0 | 0.0 | 0.00 | 0.00 | 0.00 | 78 | 1019.0 |
| 20260504033239 | 64 | 300 | 0.0 | 0.0 | 0.00 | 0.00 | 0.00 | 79 | 1019.0 |
| 20260504032736 | 64 | 300 | 0.0 | 0.0 | 0.00 | 0.00 | 0.00 | 79 | 1019.0 |
| 20260504032215 | 64 | 300 | 0.0 | 0.0 | 0.00 | 0.00 | 0.00 | 79 | 1019.0 |
| 20260504031712 | 64 | 300 | 0.0 | 0.0 | 0.00 | 0.00 | 0.00 | 78 | 1019.0 |
| 20260504031209 | 64 | 300 | 0.0 | 0.0 | 0.00 | 0.00 | 0.00 | 78 | 1019.0 |
| 20260504030706 | 64 | 300 | 0.0 | 0.0 | 0.00 | 0.00 | 0.00 | 78 | 1018.6 |
| 20260504030203 | 64 | 300 | 0.0 | 0.0 | 0.00 | 0.00 | 0.00 | 78 | 1019.0 |
| 20260504025700 | 64 | 300 | 0.0 | 0.0 | 0.00 | 0.00 | 0.00 | 77 | 1019.0 |
| 20260504025157 | 65 | 300 | 0.0 | 0.0 | 0.00 | 0.00 | 0.00 | 77 | 1019.0 |
| 20260504024654 | 65 | 300 | 0.0 | 0.0 | 0.00 | 0.00 | 0.00 | 77 | 1019.0 |
| 20260504024151 | 65 | 300 | 0.0 | 0.0 | 0.00 | 0.00 | 0.00 | 77 | 1019.0 |
| 20260504023648 | 65 | 300 | 0.0 | 0.0 | 0.00 | 0.00 | 0.00 | 76 | 1019.0 |
| 20260504023145 | 65 | 300 | 0.0 | 0.0 | 0.00 | 0.00 | 0.00 | 76 | 1019.0 |
| 20260504022641 | 66 | 300 | 0.0 | 0.0 | 0.00 | 0.00 | 0.00 | 76 | 1019.0 |
| 20260504022137 | 66 | 300 | 0.0 | 0.0 | 0.00 | 0.00 | 0.00 | 75 | 1019.0 |
| 20260504021634 | 66 | 300 | 0.0 | 0.0 | 0.00 | 0.00 | 0.00 | 75 | 1019.0 |
| 20260504021131 | 66 | 300 | 0.0 | 0.0 | 0.00 | 0.00 | 0.00 | 74 | 1019.0 |
| 20260504020629 | 66 | 300 | 0.0 | 0.0 | 0.00 | 0.00 | 0.00 | 73 | 1019.0 |
| 20260504020125 | 67 | 300 | 0.0 | 0.0 | 0.00 | 0.00 | 0.00 | 73 | 1019.0 |
| 20260504015623 | 67 | 300 | 0.0 | 0.0 | 0.00 | 0.00 | 0.00 | 73 | 1019.0 |
| 20260504015120 | 67 | 300 | 0.0 | 0.0 | 0.00 | 0.00 | 0.00 | 74 | 1019.0 |
| 20260504014616 | 67 | 300 | 0.0 | 0.0 | 0.00 | 0.00 | 0.00 | 73 | 1018.6 |
| 20260504014113 | 68 | 300 | 0.0 | 0.9 | 0.00 | 0.00 | 0.00 | 73 | 1019.0 |
| 20260504013610 | 68 | 300 | 0.0 | 0.9 | 0.00 | 0.00 | 0.00 | 72 | 1019.0 |
| 20260504013048 | 68 | 300 | 0.0 | 0.9 | 0.00 | 0.00 | 0.00 | 74 | 1019.0 |
| 20260504012545 | 68 | 300 | 0.9 | 0.9 | 0.00 | 0.00 | 0.00 | 72 | 1018.6 |
| 20260504012042 | 69 | 300 | 0.9 | 0.9 | 0.00 | 0.00 | 0.00 | 72 | 1018.6 |
| 20260504011539 | 69 | 300 | 0.0 | 0.0 | 0.00 | 0.00 | 0.00 | 72 | 1018.6 |
| 20260504011036 | 69 | 300 | 0.0 | 0.0 | 0.00 | 0.00 | 0.00 | 71 | 1018.6 |
| 20260504010458 | 69 | 300 | 0.0 | 0.9 | 0.00 | 0.00 | 0.00 | 71 | 1018.6 |
| 20260504005935 | 70 | 300 | 0.0 | 0.9 | 0.00 | 0.00 | 0.00 | 70 | 1018.6 |
| 20260504005432 | 70 | 300 | 0.0 | 0.9 | 0.00 | 0.00 | 0.00 | 70 | 1018.6 |
| 20260504004929 | 70 | 300 | 0.0 | 0.9 | 0.00 | 0.00 | 0.00 | 68 | 1018.6 |
| 20260504004426 | 70 | 296 | 0.0 | 0.0 | 0.00 | 0.00 | 0.00 | 68 | 1018.6 |
| 20260504003904 | 71 | 296 | 0.0 | 0.9 | 0.00 | 0.00 | 0.00 | 68 | 1018.6 |
| 20260504003401 | 71 | 296 | 0.0 | 0.9 | 0.00 | 0.00 | 0.00 | 67 | 1018.6 |
| 20260504002859 | 71 | 296 | 0.0 | 0.9 | 0.00 | 0.00 | 0.00 | 67 | 1018.6 |
| 20260504002354 | 72 | 327 | 0.9 | 0.9 | 0.00 | 0.00 | 0.00 | 66 | 1018.6 |
| 20260504001851 | 72 | 327 | 0.0 | 0.9 | 0.00 | 0.00 | 0.00 | 65 | 1018.6 |
| 20260504001317 | 73 | 327 | 0.9 | 0.9 | 0.00 | 0.00 | 0.00 | 62 | 1018.6 |
| 20260504000743 | 73 | 327 | 0.9 | 0.9 | 0.00 | 0.00 | 0.00 | 62 | 1018.6 |
| 20260504000138 | 73 | 327 | 0.9 | 0.9 | 0.00 | 0.00 | 0.00 | 62 | 1018.6 |
| 20260503235540 | 73 | 327 | 0.9 | 0.9 | 0.00 | 0.00 | 0.00 | 62 | 1018.6 |
| 20260503235018 | 73 | 326 | 0.0 | 1.7 | 0.00 | 0.00 | 0.00 | 61 | 1018.6 |
| 20260503234500 | 74 | 326 | 0.9 | 1.7 | 0.00 | 0.00 | 0.00 | 60 | 1019.0 |
| 20260503233957 | 74 | 326 | 0.0 | 1.7 | 0.00 | 0.00 | 0.00 | 61 | 1019.0 |
| 20260503233435 | 74 | 309 | 0.9 | 1.7 | 0.00 | 0.00 | 0.00 | 61 | 1019.0 |
| 20260503232932 | 74 | 20 | 0.9 | 1.7 | 0.00 | 0.00 | 0.00 | 59 | 1019.0 |
| 20260503232429 | 75 | 76 | 0.9 | 2.6 | 0.00 | 0.00 | 0.00 | 61 | 1019.0 |
| 20260503231926 | 75 | 76 | 0.9 | 2.6 | 0.00 | 0.00 | 0.00 | 60 | 1019.0 |
| 20260503231423 | 75 | 76 | 0.9 | 2.6 | 0.00 | 0.00 | 0.00 | 59 | 1019.0 |
| 20260503230920 | 75 | 77 | 0.9 | 2.6 | 0.00 | 0.00 | 0.00 | 60 | 1019.0 |
| 20260503230345 | 76 | 30 | 0.9 | 1.7 | 0.00 | 0.00 | 0.00 | 58 | 1019.0 |
| 20260503225823 | 76 | 55 | 0.9 | 1.7 | 0.00 | 0.00 | 0.00 | 61 | 1019.3 |
| 20260503225320 | 76 | 57 | 0.9 | 1.7 | 0.00 | 0.00 | 0.00 | 55 | 1019.0 |
| 20260503224817 | 76 | 36 | 0.9 | 2.6 | 0.00 | 0.00 | 0.00 | 61 | 1019.0 |
| 20260503224313 | 76 | 360 | 0.0 | 2.6 | 0.00 | 0.00 | 0.00 | 58 | 1019.3 |
| 20260503223811 | 77 | 9 | 0.9 | 2.6 | 0.00 | 0.00 | 0.00 | 58 | 1019.3 |
| 20260503223308 | 77 | 5 | 0.9 | 2.6 | 0.00 | 0.00 | 0.00 | 58 | 1019.3 |
| 20260503222805 | 77 | 333 | 0.0 | 1.7 | 0.00 | 0.00 | 0.00 | 58 | 1019.6 |
| 20260503222304 | 77 | 334 | 0.9 | 1.7 | 0.00 | 0.00 | 0.00 | 57 | 1019.3 |
| 20260503221759 | 77 | 327 | 0.9 | 1.7 | 0.00 | 0.00 | 0.00 | 57 | 1019.3 |
| 20260503221256 | 77 | 327 | 0.9 | 1.7 | 0.00 | 0.00 | 0.00 | 55 | 1019.3 |
| 20260503220753 | 78 | 345 | 0.9 | 1.7 | 0.00 | 0.00 | 0.00 | 56 | 1019.3 |
| 20260503220250 | 78 | 12 | 0.9 | 1.7 | 0.00 | 0.00 | 0.00 | 55 | 1019.3 |
| 20260503215747 | 78 | 26 | 0.9 | 1.7 | 0.00 | 0.00 | 0.00 | 53 | 1019.6 |
| 20260503215244 | 79 | 22 | 0.0 | 2.6 | 0.00 | 0.00 | 0.00 | 53 | 1019.6 |
| 20260503214710 | 79 | 320 | 0.9 | 2.6 | 0.00 | 0.00 | 0.00 | 56 | 1019.6 |
| 20260503214206 | 79 | 290 | 0.9 | 2.6 | 0.00 | 0.00 | 0.00 | 52 | 1019.6 |
| 20260503213703 | 79 | 286 | 0.9 | 2.6 | 0.00 | 0.00 | 0.00 | 53 | 1019.6 |
| 20260503213159 | 79 | 289 | 0.9 | 2.6 | 0.00 | 0.00 | 0.00 | 54 | 1020.0 |
| 20260503212624 | 79 | 309 | 0.9 | 3.5 | 0.00 | 0.00 | 0.00 | 53 | 1020.0 |
| 20260503212121 | 79 | 315 | 0.9 | 3.5 | 0.00 | 0.00 | 0.00 | 55 | 1020.0 |
| 20260503211559 | 79 | 315 | 0.9 | 4.3 | 0.00 | 0.00 | 0.00 | 54 | 1020.0 |
| 20260503211056 | 79 | 313 | 0.9 | 4.3 | 0.00 | 0.00 | 0.00 | 52 | 1020.0 |
| 20260503210553 | 79 | 351 | 1.7 | 4.3 | 0.00 | 0.00 | 0.00 | 52 | 1020.3 |
| 20260503210050 | 79 | 50 | 1.7 | 3.5 | 0.00 | 0.00 | 0.00 | 49 | 1020.3 |
| 20260503205516 | 80 | 315 | 0.9 | 6.1 | 0.00 | 0.00 | 0.00 | 52 | 1020.3 |
| 20260503205013 | 80 | 150 | 0.9 | 6.1 | 0.00 | 0.00 | 0.00 | 50 | 1020.3 |
| 20260503204510 | 80 | 52 | 1.7 | 6.1 | 0.00 | 0.00 | 0.00 | 53 | 1020.3 |
| 20260503204008 | 80 | 15 | 1.7 | 5.2 | 0.00 | 0.00 | 0.00 | 49 | 1020.3 |
| 20260503203505 | 80 | 46 | 1.7 | 5.2 | 0.00 | 0.00 | 0.00 | 52 | 1020.7 |
| 20260503203002 | 80 | 292 | 0.9 | 4.3 | 0.00 | 0.00 | 0.00 | 48 | 1020.7 |
| 20260503202427 | 80 | 303 | 1.7 | 5.2 | 0.00 | 0.00 | 0.00 | 53 | 1020.7 |
| 20260503201925 | 80 | 52 | 0.9 | 5.2 | 0.00 | 0.00 | 0.00 | 49 | 1021.0 |
| 20260503201422 | 80 | 54 | 2.6 | 5.2 | 0.00 | 0.00 | 0.00 | 45 | 1021.0 |
| 20260503200918 | 80 | 73 | 1.7 | 6.1 | 0.00 | 0.00 | 0.00 | 48 | 1021.0 |
| 20260503200415 | 80 | 0 | 0.9 | 6.1 | 0.00 | 0.00 | 0.00 | 49 | 1021.0 |
| 20260503195912 | 80 | 108 | 0.9 | 6.1 | 0.00 | 0.00 | 0.00 | 46 | 1021.3 |
| 20260503195409 | 80 | 62 | 1.7 | 4.3 | 0.00 | 0.00 | 0.00 | 49 | 1021.3 |
| 20260503194905 | 80 | 48 | 1.7 | 2.6 | 0.00 | 0.00 | 0.00 | 46 | 1021.3 |
| 20260503194402 | 80 | 22 | 0.9 | 4.3 | 0.00 | 0.00 | 0.00 | 46 | 1021.3 |
| 20260503193828 | 80 | 331 | 0.9 | 4.3 | 0.00 | 0.00 | 0.00 | 49 | 1021.3 |
| 20260503193223 | 80 | 70 | 0.9 | 4.3 | 0.00 | 0.00 | 0.00 | 48 | 1021.7 |
| 20260503192720 | 80 | 332 | 2.6 | 4.3 | 0.00 | 0.00 | 0.00 | 46 | 1021.7 |
| 20260503192217 | 81 | 65 | 0.9 | 2.6 | 0.00 | 0.00 | 0.00 | 50 | 1021.7 |
| 20260503191714 | 81 | 37 | 0.9 | 2.6 | 0.00 | 0.00 | 0.00 | 50 | 1021.7 |
| 20260503191211 | 81 | 311 | 1.7 | 2.6 | 0.00 | 0.00 | 0.00 | 47 | 1021.7 |
| 20260503190708 | 81 | 237 | 0.9 | 5.2 | 0.00 | 0.00 | 0.00 | 50 | 1022.0 |
| 20260503190205 | 81 | 3 | 1.7 | 7.0 | 0.00 | 0.00 | 0.00 | 53 | 1022.0 |
| 20260503185701 | 81 | 28 | 0.9 | 7.0 | 0.00 | 0.00 | 0.00 | 50 | 1022.0 |
| 20260503185158 | 80 | 40 | 1.7 | 7.0 | 0.00 | 0.00 | 0.00 | 45 | 1022.0 |
| 20260503184655 | 80 | 34 | 2.6 | 7.0 | 0.00 | 0.00 | 0.00 | 43 | 1022.0 |
| 20260503184151 | 81 | 52 | 1.7 | 7.0 | 0.00 | 0.00 | 0.00 | 45 | 1022.4 |
| 20260503183647 | 80 | 48 | 2.6 | 5.2 | 0.00 | 0.00 | 0.00 | 48 | 1022.4 |
| 20260503183144 | 80 | 187 | 1.7 | 6.1 | 0.00 | 0.00 | 0.00 | 48 | 1022.4 |
| 20260503182610 | 80 | 31 | 0.9 | 6.1 | 0.00 | 0.00 | 0.00 | 45 | 1022.4 |
| 20260503182048 | 80 | 55 | 1.7 | 6.1 | 0.00 | 0.00 | 0.00 | 42 | 1022.4 |
| 20260503181545 | 80 | 65 | 1.7 | 6.1 | 0.00 | 0.00 | 0.00 | 40 | 1022.7 |
| 20260503181041 | 80 | 27 | 1.7 | 6.1 | 0.00 | 0.00 | 0.00 | 44 | 1022.7 |
| 20260503180538 | 80 | 17 | 1.7 | 7.0 | 0.00 | 0.00 | 0.00 | 43 | 1022.7 |
| 20260503180013 | 80 | 290 | 0.9 | 7.0 | 0.00 | 0.00 | 0.00 | 44 | 1022.7 |
| 20260503175510 | 80 | 52 | 2.6 | 7.0 | 0.00 | 0.00 | 0.00 | 40 | 1022.7 |
| 20260503174905 | 80 | 47 | 2.6 | 7.0 | 0.00 | 0.00 | 0.00 | 43 | 1023.0 |
| 20260503174402 | 80 | 30 | 2.6 | 7.0 | 0.00 | 0.00 | 0.00 | 41 | 1023.0 |
| 20260503173828 | 80 | 56 | 1.7 | 9.6 | 0.00 | 0.00 | 0.00 | 45 | 1023.0 |
| 20260503173325 | 80 | 19 | 2.6 | 9.6 | 0.00 | 0.01 | 0.00 | 44 | 1023.4 |
| 20260503172822 | 80 | 357 | 1.7 | 9.6 | 0.00 | 0.01 | 0.00 | 46 | 1023.4 |
| 20260503172319 | 80 | 30 | 2.6 | 9.6 | 0.00 | 0.01 | 0.00 | 46 | 1023.4 |
| 20260503171745 | 79 | 32 | 0.9 | 5.2 | 0.00 | 0.01 | 0.00 | 50 | 1023.4 |
| 20260503171241 | 79 | 36 | 1.7 | 7.0 | 0.00 | 0.01 | 0.00 | 42 | 1023.4 |
| 20260503170706 | 79 | 3 | 1.7 | 7.0 | 0.00 | 0.01 | 0.00 | 46 | 1023.4 |
| 20260503170132 | 79 | 121 | 0.9 | 7.0 | 0.00 | 0.01 | 0.00 | 43 | 1023.4 |
| 20260503150749 | 74 | 33 | 1.7 | 6.1 | 0.00 | 0.01 | 0.00 | 65 | 1023.0 |
| 20260503150227 | 73 | 33 | 1.7 | 6.1 | 0.00 | 0.01 | 0.00 | 56 | 1023.0 |
| 20260503130854 | 62 | 294 | 0.0 | 0.0 | 0.00 | 0.01 | 0.00 | 95 | 1022.4 |
| 20260503130351 | 61 | 294 | 0.0 | 0.0 | 0.00 | 0.01 | 0.00 | 95 | 1022.4 |
| 20260503110339 | 56 | 294 | 0.0 | 0.0 | 0.00 | 0.01 | 0.00 | 92 | 1021.7 |
| 20260503090336 | 58 | 294 | 0.0 | 0.0 | 0.00 | 0.01 | 0.00 | 91 | 1021.3 |
| 20260503081202 | 59 | 294 | 0.0 | 0.0 | 0.00 | 0.01 | 0.00 | 89 | 1021.0 |
| 20260503080627 | 59 | 294 | 0.0 | 0.0 | 0.00 | 0.01 | 0.00 | 89 | 1021.0 |